Air Resources Laboratory banner image
Air Resources Laboratory web site National Oceanic and Atmospheric Administration (NOAA)

tx roundup


Office: FWD

ASUS44 KFWD 181401
RWRTX
NORTH TEXAS HOURLY WEATHER ROUNDUP
NATIONAL WEATHER SERVICE FORT WORTH TX
900 AM CDT THU OCT 18 2018

NOTE: "FAIR" INDICATES FEW OR NO CLOUDS BELOW 12,000 FEET WITH NO
SIGNIFICANT WEATHER AND/OR OBSTRUCTIONS TO VISIBILITY.

TXZ118-119-181500-
DALLAS/FORT WORTH METROPLEX

CITY           SKY/WX    TMP DP  RH WIND       PRES   REMARKS
DFW AIRPORT    NOT AVBL
DALLAS LOVE    NOT AVBL
FTW MEACHAM    NOT AVBL
FTW-NAS-JRB    CLOUDY    59  52  77 N7        30.39R
$$

TXZ091>094-102>105-117-120-121-131>134-181500-
NORTH CENTRAL TEXAS

CITY           SKY/WX    TMP DP  RH WIND       PRES   REMARKS
SHRMAN/DENISON NOT AVBL
$$

TXZ083>090-098>101-113>116-127>130-139>142-154-155-181500-
WESTERN NORTH TEXAS

CITY           SKY/WX    TMP DP  RH WIND       PRES   REMARKS
WICHITA FALLS  NOT AVBL
ABILENE        NOT AVBL
$$

TXZ143>147-156>162-174-175-181500-
CENTRAL TEXAS

CITY           SKY/WX    TMP DP  RH WIND       PRES   REMARKS
WACO           NOT AVBL
KILLEEN        NOT AVBL
$$

TXZ095>097-106>112-122>126-135>138-148>153-164>167-181500-
EAST TEXAS

CITY           SKY/WX    TMP DP  RH WIND       PRES   REMARKS
TYLER          NOT AVBL
LONGVIEW       NOT AVBL
$$

SUPPLEMENTAL OBSERVATIONS (NWS FORT WORTH AREA)

CITY           SKY/WX    TMP DP  RH WIND       PRES   REMARKS
$$

SUPPLEMENTAL OBSERVATIONS (NWS NORMAN AREA)

CITY           SKY/WX    TMP DP  RH WIND       PRES   REMARKS
$$

SUPPLEMENTAL OBSERVATIONS (NWS SAN ANGELO AREA)

CITY           SKY/WX    TMP DP  RH WIND       PRES   REMARKS
$$

SUPPLEMENTAL OBSERVATIONS (NWS SHREVEPORT AREA)

CITY           SKY/WX    TMP DP  RH WIND       PRES   REMARKS
$$

SUPPLEMENTAL OBSERVATIONS ARE A COLLECTION OF AUTOMATED INSTRUMENTS
THAT ARE MAINTAINED BY A VARIETY OF FEDERAL AND STATE AGENCIES.
CERTAIN ELEMENTS...SUCH AS HUMIDITY VALUES AND SUSTAINED WIND
SPEEDS...MAY BE APPROXIMATED.



ASUS44 KFWD 181401
RWRFWD
NORTH TEXAS HOURLY WEATHER ROUNDUP
NATIONAL WEATHER SERVICE FORT WORTH TX
900 AM CDT THU OCT 18 2018

NOTE: "FAIR" INDICATES FEW OR NO CLOUDS BELOW 12,000 FEET WITH NO
SIGNIFICANT WEATHER AND/OR OBSTRUCTIONS TO VISIBILITY.

TXZ118-119-181500-
DALLAS/FORT WORTH METROPLEX

CITY           SKY/WX    TMP DP  RH WIND       PRES   REMARKS
DFW AIRPORT    NOT AVBL
DALLAS LOVE    NOT AVBL
FTW MEACHAM    NOT AVBL
FTW-NAS-JRB    CLOUDY    59  52  77 N7        30.39R
$$

TXZ091>094-102>105-117-120-121-131>134-181500-
NORTH CENTRAL TEXAS

CITY           SKY/WX    TMP DP  RH WIND       PRES   REMARKS
SHRMAN/DENISON NOT AVBL
$$

TXZ083>090-098>101-113>116-127>130-139>142-154-155-181500-
WESTERN NORTH TEXAS

CITY           SKY/WX    TMP DP  RH WIND       PRES   REMARKS
WICHITA FALLS  NOT AVBL
ABILENE        NOT AVBL
$$

TXZ143>147-156>162-174-175-181500-
CENTRAL TEXAS

CITY           SKY/WX    TMP DP  RH WIND       PRES   REMARKS
WACO           NOT AVBL
KILLEEN        NOT AVBL
$$

TXZ095>097-106>112-122>126-135>138-148>153-164>167-181500-
EAST TEXAS

CITY           SKY/WX    TMP DP  RH WIND       PRES   REMARKS
TYLER          NOT AVBL
LONGVIEW       NOT AVBL
$$

SUPPLEMENTAL OBSERVATIONS (NWS FORT WORTH AREA)

CITY           SKY/WX    TMP DP  RH WIND       PRES   REMARKS
$$

SUPPLEMENTAL OBSERVATIONS (NWS NORMAN AREA)

CITY           SKY/WX    TMP DP  RH WIND       PRES   REMARKS
$$

SUPPLEMENTAL OBSERVATIONS (NWS SAN ANGELO AREA)

CITY           SKY/WX    TMP DP  RH WIND       PRES   REMARKS
$$

SUPPLEMENTAL OBSERVATIONS (NWS SHREVEPORT AREA)

CITY           SKY/WX    TMP DP  RH WIND       PRES   REMARKS
$$

SUPPLEMENTAL OBSERVATIONS ARE A COLLECTION OF AUTOMATED INSTRUMENTS
THAT ARE MAINTAINED BY A VARIETY OF FEDERAL AND STATE AGENCIES.
CERTAIN ELEMENTS...SUCH AS HUMIDITY VALUES AND SUSTAINED WIND
SPEEDS...MAY BE APPROXIMATED.



ASUS44 KFWD 181403
RWRTX
NORTH TEXAS HOURLY WEATHER ROUNDUP
NATIONAL WEATHER SERVICE FORT WORTH TX
900 AM CDT THU OCT 18 2018

NOTE: "FAIR" INDICATES FEW OR NO CLOUDS BELOW 12,000 FEET WITH NO
SIGNIFICANT WEATHER AND/OR OBSTRUCTIONS TO VISIBILITY.

TXZ118-119-181500-
DALLAS/FORT WORTH METROPLEX

CITY           SKY/WX    TMP DP  RH WIND       PRES   REMARKS
DFW AIRPORT    NOT AVBL
DALLAS LOVE    NOT AVBL
FTW MEACHAM    NOT AVBL
FTW-NAS-JRB    CLOUDY    59  52  77 N7        30.39R
$$

TXZ091>094-102>105-117-120-121-131>134-181500-
NORTH CENTRAL TEXAS

CITY           SKY/WX    TMP DP  RH WIND       PRES   REMARKS
SHRMAN/DENISON NOT AVBL
$$

TXZ083>090-098>101-113>116-127>130-139>142-154-155-181500-
WESTERN NORTH TEXAS

CITY           SKY/WX    TMP DP  RH WIND       PRES   REMARKS
WICHITA FALLS  NOT AVBL
ABILENE        NOT AVBL
$$

TXZ143>147-156>162-174-175-181500-
CENTRAL TEXAS

CITY           SKY/WX    TMP DP  RH WIND       PRES   REMARKS
WACO           NOT AVBL
KILLEEN        NOT AVBL
$$

TXZ095>097-106>112-122>126-135>138-148>153-164>167-181500-
EAST TEXAS

CITY           SKY/WX    TMP DP  RH WIND       PRES   REMARKS
TYLER          NOT AVBL
LONGVIEW       NOT AVBL
$$

SUPPLEMENTAL OBSERVATIONS (NWS FORT WORTH AREA)

CITY           SKY/WX    TMP DP  RH WIND       PRES   REMARKS
$$

SUPPLEMENTAL OBSERVATIONS (NWS NORMAN AREA)

CITY           SKY/WX    TMP DP  RH WIND       PRES   REMARKS
$$

SUPPLEMENTAL OBSERVATIONS (NWS SAN ANGELO AREA)

CITY           SKY/WX    TMP DP  RH WIND       PRES   REMARKS
$$

SUPPLEMENTAL OBSERVATIONS (NWS SHREVEPORT AREA)

CITY           SKY/WX    TMP DP  RH WIND       PRES   REMARKS
$$

SUPPLEMENTAL OBSERVATIONS ARE A COLLECTION OF AUTOMATED INSTRUMENTS
THAT ARE MAINTAINED BY A VARIETY OF FEDERAL AND STATE AGENCIES.
CERTAIN ELEMENTS...SUCH AS HUMIDITY VALUES AND SUSTAINED WIND
SPEEDS...MAY BE APPROXIMATED.



ASUS44 KFWD 181403
RWRFWD
NORTH TEXAS HOURLY WEATHER ROUNDUP
NATIONAL WEATHER SERVICE FORT WORTH TX
900 AM CDT THU OCT 18 2018

NOTE: "FAIR" INDICATES FEW OR NO CLOUDS BELOW 12,000 FEET WITH NO
SIGNIFICANT WEATHER AND/OR OBSTRUCTIONS TO VISIBILITY.

TXZ118-119-181500-
DALLAS/FORT WORTH METROPLEX

CITY           SKY/WX    TMP DP  RH WIND       PRES   REMARKS
DFW AIRPORT    NOT AVBL
DALLAS LOVE    NOT AVBL
FTW MEACHAM    NOT AVBL
FTW-NAS-JRB    CLOUDY    59  52  77 N7        30.39R
$$

TXZ091>094-102>105-117-120-121-131>134-181500-
NORTH CENTRAL TEXAS

CITY           SKY/WX    TMP DP  RH WIND       PRES   REMARKS
SHRMAN/DENISON NOT AVBL
$$

TXZ083>090-098>101-113>116-127>130-139>142-154-155-181500-
WESTERN NORTH TEXAS

CITY           SKY/WX    TMP DP  RH WIND       PRES   REMARKS
WICHITA FALLS  NOT AVBL
ABILENE        NOT AVBL
$$

TXZ143>147-156>162-174-175-181500-
CENTRAL TEXAS

CITY           SKY/WX    TMP DP  RH WIND       PRES   REMARKS
WACO           NOT AVBL
KILLEEN        NOT AVBL
$$

TXZ095>097-106>112-122>126-135>138-148>153-164>167-181500-
EAST TEXAS

CITY           SKY/WX    TMP DP  RH WIND       PRES   REMARKS
TYLER          NOT AVBL
LONGVIEW       NOT AVBL
$$

SUPPLEMENTAL OBSERVATIONS (NWS FORT WORTH AREA)

CITY           SKY/WX    TMP DP  RH WIND       PRES   REMARKS
$$

SUPPLEMENTAL OBSERVATIONS (NWS NORMAN AREA)

CITY           SKY/WX    TMP DP  RH WIND       PRES   REMARKS
$$

SUPPLEMENTAL OBSERVATIONS (NWS SAN ANGELO AREA)

CITY           SKY/WX    TMP DP  RH WIND       PRES   REMARKS
$$

SUPPLEMENTAL OBSERVATIONS (NWS SHREVEPORT AREA)

CITY           SKY/WX    TMP DP  RH WIND       PRES   REMARKS
$$

SUPPLEMENTAL OBSERVATIONS ARE A COLLECTION OF AUTOMATED INSTRUMENTS
THAT ARE MAINTAINED BY A VARIETY OF FEDERAL AND STATE AGENCIES.
CERTAIN ELEMENTS...SUCH AS HUMIDITY VALUES AND SUSTAINED WIND
SPEEDS...MAY BE APPROXIMATED.





Office: MAF ASUS44 KMAF 181401 RWRMAF MIDLAND AREA WEATHER ROUNDUP NATIONAL WEATHER SERVICE MIDLAND TX 900 AM CDT THU OCT 18 2018 ...IN SOUTHWEST TEXAS AND SOUTHEAST NEW MEXICO... CITY SKY/WX TMP DP RH WIND PRES REMARKS ALPINE CLOUDY 41 41 99 CALM 30.42R ANDREWS DRIZZLE 43 43 100 E7 30.41R WCI 39 ARTESIA CLOUDY 45 45 100 NE9 30.39F FOG WCI 40 BIG SPRING CLOUDY 43 42 97 NE9 30.43R WCI 38 CARLSBAD LGT RAIN 46 45 96 N5 30.38S FOG DRYDEN NOT AVBL FORT STOCKTON CLOUDY 44 44 100 CALM 30.39R GUAD PASS LGT RAIN 39 38 96 NE36 30.31F VSB 1/4 WCI 26 HOBBS CLOUDY 43 43 100 E7 30.39R FOG WCI 39 LAMESA NOT AVBL MARFA LGT RAIN 43 42 97 MISG N/A MIDLAND AIRPK N/A 46 46 100 E7 30.40S FOG MIDLAND INTL CLOUDY 45 44 97 E7 30.40R FOG ODESSA CLOUDY 44 42 93 E9 30.40R WCI 39 PECOS CLOUDY 46 44 95 CALM 30.40R PRESIDIO LGT RAIN 51 48 92 E5 30.35S SEMINOLE RAIN 43 43 100 E7 30.43S WCI 39 SNYDER DRIZZLE 44 44 100 NE6 30.42R WINK CLOUDY 45 44 97 E6 30.38R $$ ...OTHER STATIONS IN TEXAS... CITY SKY/WX TMP DP RH WIND PRES REMARKS ABILENE CLOUDY 48 48 100 N7 30.41R FOG AMARILLO CLOUDY 47 42 83 SE12 30.44R AUSTIN CLOUDY 57 51 80 N10 30.31R BROWNSVILLE RAIN 60 60 100 N16G24 30.19R CORPUS CHRISTI LGT RAIN 57 55 93 N13 30.23R FOG DALLAS FTW CLOUDY 58 51 78 NE7 30.38R DEL RIO CLOUDY 51 51 100 NW6 30.35R FOG EL PASO LGT RAIN 50 45 83 CALM 30.31R HOUSTON INT CLOUDY 59 57 93 NE10 30.26R LUBBOCK DRIZZLE 45 44 97 SE18 30.42R FOG WCI 37 SAN ANGELO CLOUDY 47 45 93 NE7 30.39S FOG SAN ANTONIO CLOUDY 53 49 86 N12G20 30.31R WACO CLOUDY 57 52 83 N9 30.34R WICHITA FALLS CLOUDY 52 44 74 SE5 30.48R $$ ...OTHER LOCATIONS IN NEW MEXICO... CITY SKY/WX TMP DP RH WIND PRES REMARKS ALAMOGORDO CLOUDY 48 45 87 SW3 30.34R ALBUQUERQUE CLOUDY 46 36 68 E16 30.34S WCI 39 CANNON AFB CLOUDY 43 41 93 E9 30.41 FOG WCI 37 CLOVIS LGT RAIN 43 43 100 E9 30.42S WCI 38 HOLLOMAN AFB CLOUDY 50 45 81 S7 30.35 ROSWELL LGT RAIN 46 44 93 NE3 30.40R RUIDOSO FOG 36 36 100 SE9 30.40S VSB<1/4 WCI 29 SANTA FE CLOUDY 40 37 89 SW6 30.38S WCI 36 TRUTH OR CONSE CLOUDY 49 40 71 N7 30.31S TUCUMCARI LGT RAIN 45 43 93 E9 30.40S FOG $$
Office: EWX ASUS44 KEWX 181402 RWREWX SOUTH TEXAS REGIONAL WEATHER ROUNDUP NATIONAL WEATHER SERVICE AUSTIN/SAN ANTONIO TX 900 AM CDT THU OCT 18 2018 NOTE: "FAIR" INDICATED FEW OR NO CLOUDS BELOW 12,000 FEET WITH NO SIGNIFICANT WEATHER AND/OR OBSTRUCTIONS TO VISIBILITY. * - THESE STATIONS ARE NOT NWS OR FAA STATIONS...AND ARE NOT SUBJECT TO NWS AND FAA QUALITY CONTROL. TXZ171-172-183>190-181500- TEXAS HILL COUNTRY AND EDWARDS PLATEAU CITY SKY/WX TMP DP RH WIND PRES REMARKS JUNCTION NOT AVBL *LLANO CLOUDY 54 50 87 N5 30.39R BURNET CLOUDY 53 48 83 N6 30.36R *HORSESHOE BAY CLOUDY 52 49 91 NW5 30.35S *KERRVILLE RAIN 49 46 90 N7 30.33R WCI 45 *FREDERICKSBRG CLOUDY 48 46 94 NE6 30.34R FOG WCI 45 *ROCKSPRINGS CLOUDY 46 45 93 N7 30.38R FOG WCI 43 *BOERNE STAGE CLOUDY 48 48 100 N10 30.31R WCI 44 *CASTROVILLE CLOUDY 54 52 94 NE5 30.32R FOG HONDO CLOUDY 55 51 86 NE9 30.31R *UVALDE CLOUDY 52 51 95 N5 30.33R FOG DEL RIO CLOUDY 51 51 100 NW6 30.35R FOG LAUGHLIN AFB CLOUDY 51 50 95 NW12 30.34R CARRIZO SPRGS DRIZZLE 54 54 100 N6 30.31R *EAGLE PASS CLOUDY 45 41 87 NW10 30.33R WCI 39 *FAITH RANCH CLOUDY 54 54 100 NW9 30.31R FOG $$ TXZ173-191>194-202-209-217>225-228-181500- CENTRAL AND SOUTH CENTRAL TEXAS CITY SKY/WX TMP DP RH WIND PRES REMARKS GEORGETOWN CLOUDY 56 50 80 N6 30.35R AUSTIN/BERGSTM CLOUDY 57 51 80 N10 30.31R AUSTIN/MABRY CLOUDY 56 49 77 VRB5 30.33R *LAGO VISTA CLOUDY 53 53 100 N5 30.33R SAN MARCOS NOT AVBL NEW BRAUNFELS CLOUDY 56 49 77 N14G22 30.29R RANDOLPH AFB CLOUDY 53 49 87 N16 30.29R PT SAN ANTONIO CLOUDY 53 50 89 NE10 30.28R SAN ANTONIO CLOUDY 53 49 86 N12G20 30.31R STINSON FIELD CLOUDY 56 49 77 N9 30.29R *LA GRANGE CLOUDY 57 53 85 N7 30.27R *GIDDINGS CLOUDY 54 49 85 NE6 30.30R *GONZALES CLOUDY 55 52 91 N8 30.28R $$ TXZ163>164-176>182-195>201-210>213-226-227-235-181500- SOUTHEAST TEXAS CITY SKY/WX TMP DP RH WIND PRES REMARKS COLLEGE STN LGT RAIN 58 52 80 NE10 30.29R *BRYAN DRIZZLE 57 52 84 NE9 30.31R *CALDWELL CLOUDY 56 52 86 N8 30.30R *CROCKETT N/A 57 50 77 NE12 30.34R *BRENHAM CLOUDY 58 53 83 NE5 30.29R HUNTSVILLE CLOUDY 59 52 77 VRB3 30.29R CONROE CLOUDY 59 56 89 NE7 30.27R HOUSTON BUSH CLOUDY 59 57 93 NE10 30.26R HOUSTON HOBBY CLOUDY 60 54 80 NE9 30.25R *HOUSTON SW AP CLOUDY 59 55 88 NE9 30.25R PEARLAND CLOUDY 60 58 92 NE13 30.25R HOUSTON HOOKS NOT AVBL ELLINGTON FLD CLOUDY 59 55 88 NE8 30.26R SUGAR LAND CLOUDY 62 56 80 NE10 30.24R *HOUSTON EXEC CLOUDY 59 57 94 NE13 30.27S *CLEVELAND MUN CLOUDY 58 55 90 CALM 30.28R *WHARTON CLOUDY 57 55 91 N8 30.24R FOG *COLUMBUS CLOUDY 56 51 82 N5 30.28R *EAGLE LAKE CLOUDY 58 55 90 N8 30.26R $$ TXZ214>216-236>238-181500- THE UPPER TEXAS COAST CITY SKY/WX TMP DP RH WIND PRES REMARKS *ORANGE CLOUDY 63 56 79 NE8G17 30.27R PORT ARTHUR PTSUNNY 64 53 67 NE14 30.24S GALVESTON CLOUDY 63 61 93 N13 30.23R FOG ANGLETON CLOUDY 61 58 90 NE12 30.23R *BAY CITY NOT AVBL PALACIOS CLOUDY 60 60 100 N14 30.21R $$ TXZ229>234-239>247-181500- TEXAS COASTAL BEND AND RIO GRANDE PLAINS CITY SKY/WX TMP DP RH WIND PRES REMARKS VICTORIA CLOUDY 57 54 89 N12 30.24R *BEEVILLE CLOUDY 55 54 97 N10G16 30.26R FOG ROCKPORT CLOUDY 59 55 87 N16G22 30.21R *PORT ARANSAS NOT AVBL *PORT LAVACA NOT AVBL *INGLESIDE CLOUDY 59 56 91 N10G17 30.21R CORPUS CHRISTI LGT RAIN 57 55 93 N13 30.23R FOG CORPUS NAS CLOUDY 61 59 93 N17 30.21R *ROBSTOWN CLOUDY 56 55 95 N13 30.25R ALICE CLOUDY 56 54 93 N12 30.24R KINGSVILLE NAS LGT RAIN 57 55 93 N14 30.23R COTULLA LGT RAIN 53 53 100 N8 30.30R FOG LAREDO LGT RAIN 55 54 96 NW13 30.29R FOG $$ TXZ248>255-181500- DEEP SOUTH TEXAS CITY SKY/WX TMP DP RH WIND PRES REMARKS BROWNSVILLE RAIN 60 60 100 N16G24 30.19R PORT ISABEL LGT RAIN 60 57 89 NW21G28 30.18R HARLINGEN LGT RAIN 58 56 93 NW18 30.21R *HEBBRONVILLE CLOUDY 54 53 96 N9 30.26R FOG MCALLEN LGT RAIN 60 59 96 NW10 30.24R *WESLACO CLOUDY 58 56 93 N14 30.21R FALFURRIAS CLOUDY 57 55 90 N8 30.24R EDINBURG CLOUDY 60 57 92 NW12 30.23R *ZAPATA DRIZZLE 55 55 99 NW8 30.28R $$ TXZ213>215-236>238-242>244-246-247-251-254-255-181500- CMAN STATIONS STATION/POSITION TIME TEMP WIND PRES WAVE AIR SEA DIR/SP/G HT/PER (UTC) (F) (DEG/KT/KT) (MB) (FT/S) SABINE PASS 1324 62 77 40/ 14/ 18 1025.2 SEA RIM ST PARK 1300 61 50/ 13/ 16 1023.9 NORTH JETTY/GLS 1324 63 73 60/ 16/ 19 1022.9 EAGLE POINT 1324 61 69 70/ 14/ 18 1024.1 MORGANS POINT 1324 60 74 40/ 8/ 12 1024.0 PORT O'CONNOR 1324 60 64 10/ 16/ 19 1022.3 PORT ARANSAS 1300 60 75 360/ 17/ 21 1022.0 MALAQUITE BEACH 1324 60 72 330/ 15/ 17 1022.4 BAFFIN BAY 1324 57 64 320/ 15/ 19 1023.1 PORT ISABEL 1324 60 69 330/ 15/ 20 1021.6 $$
Office: LUB ASUS44 KLUB 181310 RWRLUB WEST TEXAS WEATHER ROUNDUP NATIONAL WEATHER SERVICE LUBBOCK TX 800 AM CDT THU OCT 18 2018 NOTE: "FAIR" INDICATES FEW OR NO CLOUDS BELOW 12,000 FEET WITH NO SIGNIFICANT WEATHER AND/OR OBSTRUCTIONS TO VISIBILITY. TXZ004-006>008-010-012-014-016-OKZ002-181400- TEXAS PANHANDLE/OKLAHOMA PANHANDLE CITY SKY/WX TMP DP RH WIND PRES REMARKS AMARILLO CLOUDY 47 43 86 SE7 30.43F BORGER CLOUDY 53 42 66 SE6 30.43S CANADIAN CLOUDY 52 47 83 E5 30.43S DALHART CLOUDY 45 42 89 SW6 30.44R FOG DUMAS DRIZZLE 46 42 86 S7 30.43S GUYMON CLOUDY 49 44 83 CALM 30.42S HEREFORD RAIN 46 45 97 SE3 30.43S PAMPA CLOUDY 51 45 77 SE8 30.44S PERRYTON CLOUDY 51 47 84 SE5 30.43S $$ TXZ026-029-035-045-048-181400- SOUTHERN PANHANDLE/SOUTH PLAINS/ROLLING PLAINS CITY SKY/WX TMP DP RH WIND PRES REMARKS CHILDRESS CLOUDY 53 48 83 NE3 30.44S SEMINOLE RAIN 43 43 100 E10 30.43S LUBBOCK LGT RAIN 46 44 93 E12 30.40S FOG PLAINVIEW DRIZZLE 44 43 97 E8 30.40F SNYDER DRIZZLE 44 44 100 NE6 30.41S $$ TXZ052-054-060>062-072-078-127-140-154-169-181400- PERMIAN BASIN/CONCHO VALLEY/BIG COUNTRY/EDWARDS PLATEAU CITY SKY/WX TMP DP RH WIND PRES REMARKS ABILENE LGT RAIN 49 48 97 N5 30.40F FOG BIG SPRING CLOUDY 43 42 97 NE9 30.42R BRADY CLOUDY 46 45 93 N8 30.36F BROWNWOOD CLOUDY 50 48 93 N3 30.38R MIDLAND CLOUDY 44 44 100 NE8 30.39R FOG ODESSA CLOUDY 44 43 96 E8 30.39S SAN ANGELO CLOUDY 46 45 96 NE8 30.38R FOG SONORA CLOUDY 46 46 100 NE8 30.39S FOG SWEETWATER CLOUDY 45 45 100 NE6 30.42S WINK CLOUDY 45 44 97 E5 30.37S $$ TXZ055-058-074-075-080-082-181400- FAR WEST/SOUTHWEST MOUNTAINS/TRANS PECOS CITY SKY/WX TMP DP RH WIND PRES REMARKS ALPINE CLOUDY 41 41 99 CALM 30.41S DRYDEN N/A 48 46 93 N7 30.34R EL PASO LGT RAIN 50 45 83 NE3 30.30S FORT STOCKTON CLOUDY 43 43 100 CALM 30.37F GUADALUPE PASS LGT RAIN 39 38 96 NE33 30.32R VSB 1/4 WCI 27 MARFA LGT RAIN 43 42 97 E5 30.35 PECOS CLOUDY 45 44 95 CALM 30.39R PRESIDIO CLOUDY 50 48 93 E3 30.34S $$ TXZ014-016-019-021>030-083-181400 TEXAS TECH WEST TEXAS MESONET/TEXAS PANHANDLE/NORTHERN SOUTH PLAINS CITY SKY/WX TMP DP RH WIND PRES REMARKS ABERNATHY 5ENE N/A 45 44 97 E12 30.45R AMARILLO 9NNE N/A 47 44 89 SE5 30.43F AMARILLO 7SSE N/A 46 44 91 SE9 30.45S AMHERST 1NE N/A 44 43 96 E12 30.41R BOOTLEG 11WNW N/A 42 42 100 SE9 30.45S CANADIAN 6E N/A 51 46 83 E6 30.43S CAPROCK CYN SP N/A 47 45 93 S2 30.45S CHILDRESS 2NNE N/A 52 46 79 N6 30.44S CLARENDON 2WSW N/A 49 43 80 E3 30.45S CLAUDE 12SW N/A 47 42 84 SE10 30.44S DIMMITT 2NE N/A 43 42 98 E9 30.43R FLOYDADA 2NNE N/A 46 45 96 E12G17 30.43R FRIONA 2NE N/A 43 42 97 E12 30.44F GOODLETT 3W N/A 52 47 81 NE6 30.43S HART 3N RAIN 44 43 99 E13 30.43S HEREFORD 2NW LGT RAIN 44 42 95 E5 30.46R MCLEAN 1E N/A 50 43 76 SE5 30.45R MEMPHIS 1NE N/A 51 48 88 N2 30.44F MULESHOE 2SSW RAIN 44 43 97 E8 30.42S OLTON 6S N/A 45 43 95 E14 30.41F PALO DURO SP N/A 47 42 84 SE10 30.46R PAMPA 2E N/A 49 46 88 SE7 30.45R PLAINVIEW 1S N/A 45 45 99 E8 30.43S SILVERTON 7ESE N/A 46 45 95 E10 30.42F TULIA 2ENE N/A 45 44 94 E9 30.44S TURKEY 2WSW N/A 48 46 91 CALM 30.45S UMBARGER 3NNE N/A 45 44 97 E7 30.45S $$ TXZ033>036-039>041-045>048-181400 TEXAS TECH WEST TEXAS MESONET/SOUTH PLAINS CITY SKY/WX TMP DP RH WIND PRES REMARKS AIKEN 3WSW N/A 45 44 97 E8 30.44S ANDREWS 2NE N/A 43 42 94 E7 30.42R ANTON 6SSW LGT RAIN 45 44 97 E17 30.40F BROWNFIELD 2S RAIN 44 43 97 E10 30.41R DENVR CTY 7WNW RAIN 43 42 98 E9 30.39F GAIL 2ESE N/A 45 43 94 E7 30.42R LAMESA 2SE LGT RAIN 44 43 97 E9 30.42R LUBBOCK 3WNW N/A 45 45 97 E14G21 30.42S MORTON 1ENE N/A 45 44 98 E9 30.42R ODONNELL 1N N/A 43 43 98 E13 30.41R PLAINS 3N N/A 44 43 98 E10 30.41R RALLS 1SE N/A 45 43 92 E16 30.43S REESE CENTER N/A 44 44 99 E16 30.41F SEAGRAVES 1SW LGT RAIN 44 43 97 E5 30.41R SEMINOLE 2NNE RAIN 43 42 95 E10 30.40S SLATON 2NE N/A 44 44 97 E14G21 30.42S SNYDER 3E N/A 43 42 98 NE7 30.42R SUNDOWN 8SW N/A 44 43 97 E10 30.40R TAHOKA 3NNE N/A 44 43 97 E14 30.41S WOLFFORTH 6SSW N/A 44 44 97 E15 30.40F $$ TXZ031-032-036>038-042>044-181400- TEXAS TECH WEST TEXAS MESONET/ROLLING PLAINS CITY SKY/WX TMP DP RH WIND PRES REMARKS ASPERMONT 3NE LGT RAIN 48 48 98 E6 30.43S FLUVANNA 3WNW N/A 43 42 96 NE8 30.42R GRAHAM 5SSW LGT RAIN 44 42 96 E9 30.41S GUTHRIE 10WSW N/A 48 46 93 NW1 30.44R HASKELL 1NW N/A 49 47 95 NE7 30.43S JAYTON 1SSE N/A 47 46 97 E7 30.43R KNOX CITY 3NW N/A 50 49 94 NE3 30.44F LK A HENRY 1NW N/A 45 45 99 E8 30.44R NORTHFIELD 1S N/A 50 47 91 CALM 30.45R ODELL 4ENE N/A 53 50 89 NE3 30.45R PADUCAH 10SW N/A 49 47 92 N3 30.44R POST 1NE LGT RAIN 45 44 97 E8 30.43R RRING SPRGS 3N N/A 47 46 97 NE6 30.44S SEYMOUR 3NW RAIN 51 49 94 E2 30.44S SPUR 1W N/A 47 45 94 E5 30.43S WEINERT 2NNE N/A 50 48 93 NE6 30.44S WHITE RVR 6NE N/A 45 44 95 E8 30.43S $$ TXZ052-054-060>062-072-078-127-140-154-169-181400- TEXAS TECH WEST TEXAS MESONET/PERMIAN BASIN/ CONCHO VALLEY/BIG COUNTRY/EDWARDS PLATEAU CITY SKY/WX TMP DP RH WIND PRES REMARKS COYANOSA 2N N/A 45 44 96 E2 30.40S JUNCTION 1SSW N/A 47 47 100 N9 30.37R MERTZON 3NNE N/A 44 44 100 N6 30.41R SAN ANGELO 7NW N/A 46 44 96 NE3 30.40R STRLNG CT 4WSW N/A 44 44 100 NE2 30.41S ST LAWRNCE 5SW N/A 43 42 96 NE6 30.40S SWEETWATR 11SW N/A 43 43 100 NE8 30.41S WALL 1E N/A 46 46 99 NE8 30.40S $$ TXZ055-058-074-075-080-082-181400- TEXAS TECH WEST TEXAS MESONET/FAR WEST/SOUTHWEST MOUNTAINS/TRANS PECOS CITY SKY/WX TMP DP RH WIND PRES REMARKS PRSMN GAP BBNP N/A 47 45 93 N14 30.35R GUADLPE MTN NP LGT RAIN 39 38 98 NE9 30.38R WCI 33 $$
Office: SJT ASUS44 KSJT 181402 RWRSJT WEST CENTRAL TEXAS REGIONAL WEATHER ROUNDUP NATIONAL WEATHER SERVICE SAN ANGELO TX 900 AM CDT THU OCT 18 2018 NOTE: "FAIR" INDICATES FEW OR NO CLOUDS BELOW 12,000 FEET WITH NO SIGNIFICANT WEATHER AND/OR OBSTRUCTIONS TO VISIBILITY. TXZ049-054-064>066-071>073-076>078-098-099-113-114-127-128-139-140- 154-155-168>170-181500 ...LOCATIONS ACROSS WEST CENTRAL TEXAS... CITY SKY/WX TMP DP RH WIND PRES REMARKS SAN ANGELO CLOUDY 47 45 93 NE7 30.39S FOG ABILENE CLOUDY 48 48 100 N7 30.41R FOG DYESS AFB NOT AVBL JUNCTION NOT AVBL SWEETWATER CLOUDY 46 46 100 NE7 30.44R BROWNWOOD NOT AVBL COLEMAN CLOUDY 48 47 97 N7 30.39S SONORA NOT AVBL OZONA NOT AVBL BRADY CLOUDY 46 46 100 N9 30.38R $$ TEXAS PANHANDLE/OKLAHOMA PANHANDLE CITY SKY/WX TMP DP RH WIND PRES REMARKS AMARILLO CLOUDY 47 42 83 SE12 30.44R BORGER CLOUDY 53 43 68 SE6 30.43S CANADIAN CLOUDY 53 48 83 SE7 30.45R DALHART CLOUDY 45 43 93 SE9 30.43S FOG DUMAS CLOUDY 45 44 95 S6 30.44R FOG GUYMON NOT AVBL HEREFORD LGT RAIN 46 45 97 E6 30.43S PAMPA RAIN 51 46 80 S10 30.45S PERRYTON CLOUDY 52 46 80 SE5 30.43R $$ SOUTHERN PANHANDLE/SOUTH PLAINS/ROLLING PLAINS CITY SKY/WX TMP DP RH WIND PRES REMARKS LUBBOCK DRIZZLE 45 44 97 SE18 30.42R FOG WCI 37 SNYDER DRIZZLE 44 44 100 NE6 30.42R CHILDRESS CLOUDY 53 47 79 VRB3 30.45R SEMINOLE NOT AVBL $$ PERMIAN BASIN CITY SKY/WX TMP DP RH WIND PRES REMARKS MIDLAND CLOUDY 45 44 97 E7 30.40R FOG ODESSA CLOUDY 44 42 93 E9 30.40R WCI 39 WINK CLOUDY 45 44 97 E6 30.38R $$ FAR WEST/SOUTHWEST MOUNTAINS/TRANS PECOS CITY SKY/WX TMP DP RH WIND PRES REMARKS ALPINE NOT AVBL DRYDEN NOT AVBL EL PASO LGT RAIN 50 45 83 CALM 30.31R FORT STOCKTON CLOUDY 44 44 100 CALM 30.39R GUADALUPE PASS LGT RAIN 39 38 96 NE36 30.31F VSB 1/4 WCI 26 MARFA LGT RAIN 43 42 97 MISG N/A PECOS NOT AVBL $$ DALLAS/FORT WORTH METROPLEX CITY SKY/WX TMP DP RH WIND PRES REMARKS DFW AIRPORT CLOUDY 58 51 78 NE7 30.38R FTW MEACHAM CLOUDY 57 53 86 N8 30.38R DAL-EXECUTIVE CLOUDY 58 50 75 NE7 30.37R GRAND PRAIRIE CLOUDY 57 50 77 N7 30.40R ADDISON CLOUDY 59 50 72 NE9 30.40R MESQUITE CLOUDY 57 52 82 CALM 30.38R LANCASTER CLOUDY 57 51 78 NE5 30.38R $$ NORTH CENTRAL TEXAS CITY SKY/WX TMP DP RH WIND PRES REMARKS SHRMAN/DENISON CLOUDY 56 50 78 E9 30.44R GAINESVILLE NOT AVBL BRIDGEPORT NOT AVBL DENTON CLOUDY 57 51 80 NE9 30.40R WAXAHACHIE CLOUDY 58 51 77 NE8 30.38S GRANBURY NOT AVBL $$ WESTERN NORTH TEXAS CITY SKY/WX TMP DP RH WIND PRES REMARKS WICHITA FALLS LGT RAIN 54 50 86 N8 30.43R VERNON CLOUDY 55 51 89 NE6 30.45R BRECKENRIDGE NOT AVBL COMANCHE CLOUDY 50 50 100 MISG 30.39R $$ CENTRAL AND SOUTH CENTRAL TEXAS CITY SKY/WX TMP DP RH WIND PRES REMARKS AUSTIN/BERGSTM CLOUDY 57 51 80 N10 30.31R WACO CLOUDY 57 52 83 N9 30.34R HILLSBORO CLOUDY 58 53 82 NE7 30.35S TEMPLE CLOUDY N/A N/A N/A N9 30.33S KILLEEN-GRAY CLOUDY 53 49 86 N8 30.34R FORT HOOD CLOUDY 54 50 86 NE10 30.30R GEORGETOWN CLOUDY 56 50 80 N6 30.35R LAGO VISTA CLOUDY 53 53 100 N5 30.33R SAN MARCOS NOT AVBL NEW BRAUNFELS CLOUDY 56 49 77 N14G22 30.29R RANDOLPH AFB CLOUDY 53 49 87 N16 30.29R SAN ANTONIO CLOUDY 53 49 86 N12G20 30.31R STINSON CLOUDY 56 49 77 N9 30.29R PLEASANTON NOT AVBL LA GRANGE CLOUDY 57 53 85 N7 30.27R GIDDINGS CLOUDY 54 49 85 NE6 30.30R $$ EAST TEXAS CITY SKY/WX TMP DP RH WIND PRES REMARKS PARIS CLOUDY 58 47 66 E13 30.43R CLARKSVILLE NOT AVBL TYLER CLOUDY 58 50 75 NE12 30.36R LONGVIEW CLOUDY 60 53 77 E8 30.37R PALESTINE CLOUDY 60 52 74 NE8 30.36R NACOGDOCHES LGT RAIN 59 51 75 VRB6 30.34R $$ TEXAS HILL COUNTRY AND EDWARDS PLATEAU CITY SKY/WX TMP DP RH WIND PRES REMARKS LLANO NOT AVBL HORSESHOE BAY CLOUDY 52 49 91 NW5 30.35S KERRVILLE RAIN 49 46 90 N7 30.33R FREDERICKSBRG CLOUDY 48 46 94 NE6 30.34R FOG ROCKSPRINGS CLOUDY 46 45 93 N7 30.38R FOG HONDO CLOUDY 55 51 86 NE9 30.31R UVALDE CLOUDY 52 51 95 N5 30.33R FOG DEL RIO CLOUDY 51 51 100 NW6 30.35R FOG $$ SOUTHEAST TEXAS CITY SKY/WX TMP DP RH WIND PRES REMARKS COLLEGE STN LGT RAIN 58 52 80 NE10 30.29R CALDWELL CLOUDY 56 52 86 N8 30.30R CROCKETT NOT AVBL BRENHAM NOT AVBL HUNTSVILLE CLOUDY 59 52 77 VRB3 30.29R CONROE CLOUDY 59 56 89 NE7 30.27R HOUSTON BUSH CLOUDY 59 57 93 NE10 30.26R HOUSTON HOBBY CLOUDY 60 54 80 NE9 30.25R PERLAND CLOUDY 60 58 92 NE13 30.25R WHARTON CLOUDY 57 55 91 N8 30.24R FOG $$ THE UPPER TEXAS COAST CITY SKY/WX TMP DP RH WIND PRES REMARKS ORANGE NOT AVBL PORT ARTHUR PTSUNNY 64 53 67 NE14 30.24S GALVESTON CLOUDY 63 61 93 N13 30.23R FOG ANGLETON CLOUDY 61 58 90 NE12 30.23R BAY CITY NOT AVBL $$ TEXAS COASTAL BEND, RIO GRANDE PLAINS DEEP SOUTH TEXAS CITY SKY/WX TMP DP RH WIND PRES REMARKS VICTORIA CLOUDY 57 54 89 N12 30.24R BEEVILLE CLOUDY 55 54 97 N10G16 30.26R FOG ROCKPORT CLOUDY 59 55 87 N16G22 30.21R PORT ARANSAS NOT AVBL PORT LAVACA NOT AVBL CORPUS CHRISTI LGT RAIN 57 55 93 N13 30.23R FOG KINGSVILLE NAS LGT RAIN 57 55 93 N14 30.23R COTULLA LGT RAIN 53 53 100 N8 30.30R FOG LAREDO LGT RAIN 55 54 96 NW13 30.29R FOG BROWNSVILLE RAIN 60 60 100 N16G24 30.19R PORT ISABEL LGT RAIN 60 57 89 NW21G28 30.18R HEBBRONVILLE NOT AVBL MCALLEN LGT RAIN 60 59 96 NW10 30.24R WESLACO NOT AVBL FALFURRIAS CLOUDY 57 55 90 N8 30.24R EDINBURG NOT AVBL $$